Regional Weather Roundup
Issued by NWS

Home | Current Version | Previous Version | Graphics & Text | Print | Product List | Glossary On
Versions: 1 2 3 4 5 6 7 8 9 10 11 12 13 14 15 16 17 18 19 20 21 22 23 24 25 26 27 28 29 30 31 32 33 34 35 36 37 38 39 40 41 42 43 44 45 46 47 48 49 50
000
ASUS43 KMPX 232101
RWRMN
WEATHER ROUNDUP FOR MINNESOTA
NATIONAL WEATHER SERVICE TWIN CITIES/CHANHASSEN MN
300 PM CST MON JAN 23 2017


NOTE: "FAIR" INDICATES FEW OR NO CLOUDS BELOW 12,000 FEET WITH NO
SIGNIFICANT WEATHER AND/OR OBSTRUCTIONS TO VISIBILITY. N/A MEANS
CURRENT SKY AND/OR WEATHER CONDITIONS ARE NOT AVAILABLE.

MNZ060>063-068>070-232200-
   Twin Cities Metro

CITY           SKY/WX    TMP DP  RH WIND       PRES   REMARKS
TWIN CITIES    CLOUDY    35  28  75 CALM      29.81F
ST PAUL        CLOUDY    34  30  85 SW5       29.82F WCI  30
CRYSTAL        CLOUDY    34  29  82 CALM      29.80S
BLAINE         CLOUDY    36  34  93 CALM      29.81S
LAKEVILLE        N/A     32  30  93 NW5       29.80F WCI  27
EDEN PRAIRIE   CLOUDY    34  29  82 W5        29.80S WCI  30
SOUTH ST PAUL  CLOUDY    34  31  90 CALM      29.81F
LAKE ELMO      CLOUDY    34  32  93 W5        29.82S WCI  30
$$
MNZ001>005-007-008-013>017-022>024-027-028-232200-
   Northwest Minnesota

CITY           SKY/WX    TMP DP  RH WIND       PRES   REMARKS
BEMIDJI        CLOUDY    32  27  80 W8        29.76S WCI  25
HALLOCK        CLOUDY    28  25  86 W10       29.76R WCI  19
ROSEAU         MOSUNNY   30  27  86 SW10      29.75S WCI  21
WARROAD        CLOUDY    32  28  86 SW8       29.75R WCI  25
THIEF RVR FALL CLOUDY    30  24  78 W13       29.78S WCI  20
CROOKSTON      CLOUDY    30  27  86 W8        29.80R WCI  23
FOSSTON        CLOUDY    30  27  86 W6        29.78S WCI  24
DETROIT LAKES  PTSUNNY   32  28  86 CALM      29.79R
MOORHEAD       CLOUDY    34  27  75 NW5       29.81R WCI  30
PARK RAPIDS    CLOUDY    32  23  69 W6        29.76F WCI  26
MAHNOMEN       CLOUDY    31  26  80 W8        29.78R WCI  23
$$
MNZ006-009>011-018-025>026-232200-
   North Central Minnesota

CITY           SKY/WX    TMP DP  RH WIND       PRES   REMARKS
BAUDETTE       CLOUDY    33  28  81 SW7       29.74S WCI  27
FLAG ISLAND    CLOUDY    32  28  86 SW9       29.73R WCI  24
INTL FALLS     CLOUDY    33  28  81 SW7       29.75R WCI  27
WASKISH        CLOUDY    32  28  86 SW9       29.76S WCI  24
BIG FORK       CLOUDY    32  28  86 W3        29.76S
LONGVILLE      CLOUDY    30  27  86 W5        29.77S WCI  25
GRAND RAPIDS   CLOUDY    32  28  85 VRB5      29.79R WCI  27
CRANE LAKE     CLOUDY    32  30  93 SW3       29.78R
ORR            CLOUDY    32  28  86 CALM      29.73F
COOK           LGT SNOW  32  30  93 W5        29.76R WCI  27
WALKER         CLOUDY    31  25  78 W5        29.76F WCI  27
$$
MNZ012-019>021-037-232200-
   Northeast Minnesota

CITY           SKY/WX    TMP DP  RH WIND       PRES   REMARKS
DULUTH         LGT SNOW  35  33  92 W6        29.76R FOG     WCI  30
ELY            CLOUDY    36  34  93 SW5       29.75R
HIBBING        CLOUDY    32  31  96 W6        29.76R WCI  26
EVELETH        LGT SNOW  34  32  94 W7        29.77R WCI  28
DULUTH HARBOR  DRIZZLE   37  34  87 W9        29.79R
TWO HARBORS    CLOUDY    39  34  81 SW6       29.75R
SILVER BAY     CLOUDY    37  36  93 S6        29.74R
GRAND MARAIS     N/A     38  35  89 CALM      29.76S
G MARAIS ARPRT CLOUDY    34  28  80 CALM      29.72S
$$
MNZ029>031-032-039>041-046>048-054>057-064-232200-
   West Central Minnesota

CITY           SKY/WX    TMP DP  RH WIND       PRES   REMARKS
FERGUS FALLS   CLOUDY    32  27  80 W3        29.85R
WHEATON        CLOUDY    32  25  74 SW5       29.84R WCI  27
MORRIS         CLOUDY    32  27  80 CALM      29.80S
ALEXANDRIA     CLOUDY    31  26  82 NW7       29.79S WCI  24
ELBOW LAKE     CLOUDY    31  25  78 NW3       29.81S HAZE
WADENA         CLOUDY    30  25  80 W6        29.78S WCI  24
GLENWOOD       CLOUDY    30  27  86 W7        29.80R WCI  23
APPLETON       CLOUDY    34  27  75 N3        29.81F
ORTONVILLE     CLOUDY    32  25  74 CALM      29.81S
MADISON        CLOUDY    36  28  75 CALM      29.82S
WILLMAR        CLOUDY    34  28  80 CALM      29.82S
$$
MNZ033>034-036-042>043-049>051-058-059-232200-
   Central Minnesota

CITY           SKY/WX    TMP DP  RH WIND       PRES   REMARKS
ST CLOUD       CLOUDY    32  29  88 N7        29.79F WCI  26
SAUK CENTRE    CLOUDY    31  27  86 CALM      29.79S
PAYNESVILLE    CLOUDY    32  31  95 NW3       29.80S
AITKIN         CLOUDY    34  28  80 W6        29.77S WCI  29
PINE RIVER     CLOUDY    32  27  80 W3        29.82R
BRAINERD       CLOUDY    32  27  81 W7        29.79S WCI  26
STAPLES        CLOUDY    30  27  86 CALM      29.79S
LONG PRAIRIE   CLOUDY    32  27  80 CALM      29.79F
LITTLE FALLS   CLOUDY    32  27  80 N3        29.79F
LITCHFIELD     CLOUDY    34  28  80 NW3       29.80S
BUFFALO        CLOUDY    33  28  83 NW6       29.81S WCI  27
MAPLE LAKE     CLOUDY    33  31  91 CALM      29.81F
HUTCHINSON     CLOUDY    33  29  84 W9        29.82S WCI  26
$$
MNZ037-044-045-052-053-232200-
   East Central Minnesota

CITY           SKY/WX    TMP DP  RH WIND       PRES   REMARKS
PRINCETON      CLOUDY    34  30  86 W5        29.80F WCI  30
MORA           CLOUDY    34  30  86 W6        29.81S WCI  29
CAMBRIDGE      CLOUDY    36  34  93 W5        29.79S
RUSH CITY      CLOUDY    34  32  93 CALM      29.81S
MOOSE LAKE     LGT RAIN  34  32  93 W5        29.76S WCI  30
HINCKLEY       DRIZZLE   34  34 100 W5        29.79S WCI  30
CLOQUET        CLOUDY    34  32  93 W5        29.77R WCI  30
MCGREGOR       CLOUDY    32  32 100 W7        29.78S WCI  26
$$
MNZ071>073-080-081-089-090-097-098-232200-
   Southwest Minnesota

CITY           SKY/WX    TMP DP  RH WIND       PRES   REMARKS
MONTEVIDEO     CLOUDY    32  32 100 N3        29.83S
GRANITE FALLS  CLOUDY    33  29  86 W3        29.83F
CANBY          CLOUDY    32  29  88 CALM      29.82S
MARSHALL       CLOUDY    32  28  85 N3        29.82S
REDWOOD FALLS  CLOUDY    33  27  78 W6        29.82S WCI  28
OLIVIA         PTSUNNY   32  30  93 W5        29.81S WCI  27
PIPESTONE      CLOUDY    30  28  93 E3        29.78R FOG
WINDOM         CLOUDY    30  28  93 CALM      29.81S
WORTHINGTON    CLOUDY    31  28  89 NW3       29.81
JACKSON        CLOUDY    30  28  93 W3        29.81S
TRACY          CLOUDY    32  29  90 CALM      29.82R
SLAYTON        CLOUDY    29  28  95 CALM      29.80F FOG
$$
MNZ065>067-074>077-082>085-091>093-232200-
   South Central Minnesota

CITY           SKY/WX    TMP DP  RH WIND       PRES   REMARKS
MANKATO        CLOUDY    33  28  81 NW8       29.83R WCI  26
NEW ULM        CLOUDY    32  30  93 CALM      29.83R FOG
ST JAMES       CLOUDY    30  30 100 W5        29.83F FOG     WCI  25
FAIRMONT       CLOUDY    32  30  92 N6        29.83S WCI  26
GLENCOE        CLOUDY    34  31  90 NW6       29.80S WCI  29
OWATONNA       CLOUDY    32  28  86 NW5       29.81S WCI  27
WASECA         CLOUDY    32  28  86 NW6       29.83R WCI  26
ALBERT LEA     CLOUDY    34  28  80 W3        29.81R
$$
MNZ078>079-086>088-094>096-232200-
   Southeast Minnesota

CITY           SKY/WX    TMP DP  RH WIND       PRES   REMARKS
ROCHESTER      CLOUDY    33  30  88 NW10      29.79F WCI  25
RED WING       CLOUDY    36  30  80 W6        29.81F
STANTON        CLOUDY    34  29  83 CALM      29.80S
DODGE CENTER   MOSUNNY   32  28  86 CALM      29.80S
WINONA           N/A     36  32  87 W6        29.82S
AUSTIN         CLOUDY    32  27  80 N5        29.80F WCI  27
PRESTON        CLOUDY    32  30  91 NW6       29.80S WCI  26
$$
ABBREVIATIONS USED IN REMARKS
   TC - TEMPERATURES IN CELSIUS
  WCI - WIND CHILL INDEX
   HX - HEAT INDEX
  VSB - VISIBILITY
$$



USA.gov is the U.S. government's official web portal to all federal, state and local government web resources and services.